FLX1982 SBSV-SDIH

Flight info

Callsign FLX1982
Flight time N/A
Altitude 10000
Route REA DCT 1257S03821W 1301S03828W 1300S03831W 1307S03847W 1323S03854W 1629S03904W 1643S03906W 1952S04005W 2003S04011W 2011S04011W 2231S04204W 2257S04229W 2302S04300W 2305S04328W 2314S04407W 2318S04427W 2331S04504W 2331S04550W DCT
Aircraft SR22/L-SDGRY/S

Departure

Time 2026-05-04 22:55
Airport Deputado Luiz Eduardo Magalhães International Airport (SBSV)

Arrival

Time N/A
Airport Fazenda Irohy Airport (SDIH)
Time Latitude Longitude Altitude Speed Heading
2026-05-04 22:20 -12.91012 -38.34400 38 ft 0 kts 232°
2026-05-04 22:23 -12.91016 -38.34405 38 ft 4 kts 214°
2026-05-04 22:23 -12.91027 -38.34399 39 ft 0 kts 74°
2026-05-04 22:23 -12.90963 -38.34405 38 ft 11 kts 346°
2026-05-04 22:24 -12.90929 -38.34386 38 ft 0 kts 39°
2026-05-04 22:24 -12.90916 -38.34371 38 ft 5 kts 54°
2026-05-04 22:24 -12.90869 -38.34327 39 ft 12 kts 348°
2026-05-04 22:24 -12.90830 -38.34343 39 ft 5 kts 132°
2026-05-04 22:25 -12.90897 -38.34349 38 ft 14 kts 236°
2026-05-04 22:25 -12.90989 -38.34384 38 ft 19 kts 142°
2026-05-04 22:25 -12.91077 -38.34379 39 ft 3 kts 220°
2026-05-04 22:25 -12.91084 -38.34387 39 ft 3 kts 244°
2026-05-04 22:26 -12.91063 -38.34409 39 ft 4 kts 38°
2026-05-04 22:26 -12.91060 -38.34405 39 ft 0 kts 57°
2026-05-04 22:27 -12.91059 -38.34405 39 ft 0 kts 52°
2026-05-04 22:27 -12.91059 -38.34404 39 ft 0 kts 53°
2026-05-04 22:52 -12.90974 -38.34398 38 ft 13 kts 327°
2026-05-04 22:52 -12.90925 -38.34383 38 ft 6 kts 54°
2026-05-04 22:52 -12.90915 -38.34369 38 ft 0 kts 49°
2026-05-04 22:54 -12.90875 -38.34327 38 ft 14 kts 39°
2026-05-04 22:55 -12.90996 -38.34213 39 ft 57 kts 143°
2026-05-04 22:55 -12.91458 -38.33868 142 ft 92 kts 143°
2026-05-04 22:55 -12.91993 -38.33518 546 ft 80 kts 152°
2026-05-04 22:55 -12.92475 -38.33466 893 ft 72 kts 193°
2026-05-04 22:56 -12.92965 -38.33688 1119 ft 81 kts 206°
2026-05-04 22:56 -12.93519 -38.34003 1283 ft 100 kts 209°
2026-05-04 22:56 -12.94144 -38.34385 1512 ft 109 kts 210°
2026-05-04 22:56 -12.94821 -38.34810 1702 ft 121 kts 211°
2026-05-04 22:57 -12.95594 -38.35355 1654 ft 148 kts 226°
2026-05-04 22:57 -12.96202 -38.36300 1495 ft 170 kts 241°
2026-05-04 22:57 -12.96789 -38.37416 1315 ft 185 kts 242°
2026-05-04 22:57 -12.97399 -38.38586 1199 ft 178 kts 242°
2026-05-04 22:58 -12.97983 -38.39696 1201 ft 179 kts 242°
2026-05-04 22:58 -12.98578 -38.40830 1200 ft 178 kts 242°
2026-05-04 22:58 -12.99165 -38.41946 1200 ft 178 kts 242°
2026-05-04 22:58 -12.99750 -38.43058 1200 ft 177 kts 242°
2026-05-04 22:59 -13.00338 -38.44178 1201 ft 179 kts 242°
2026-05-04 22:59 -13.00934 -38.45311 1201 ft 180 kts 242°
2026-05-04 22:59 -13.01492 -38.46463 1194 ft 181 kts 254°
2026-05-04 22:59 -13.01542 -38.47738 1205 ft 180 kts 274°
2026-05-04 23:00 -13.01432 -38.49028 1201 ft 181 kts 276°
2026-05-04 23:00 -13.01308 -38.50306 1200 ft 181 kts 276°
2026-05-04 23:00 -13.01182 -38.51594 1200 ft 181 kts 276°
2026-05-04 23:00 -13.01074 -38.52893 1194 ft 181 kts 269°
2026-05-04 23:01 -13.01424 -38.54109 1201 ft 181 kts 246°
2026-05-04 23:01 -13.01962 -38.55287 1200 ft 181 kts 244°
2026-05-04 23:01 -13.02511 -38.56451 1200 ft 181 kts 244°
2026-05-04 23:01 -13.03057 -38.57608 1200 ft 181 kts 244°
2026-05-04 23:02 -13.03605 -38.58773 1200 ft 181 kts 244°
2026-05-04 23:02 -13.04157 -38.59946 1200 ft 181 kts 244°
2026-05-04 23:02 -13.04701 -38.61104 1200 ft 181 kts 244°
2026-05-04 23:02 -13.05254 -38.62281 1200 ft 181 kts 244°
2026-05-04 23:03 -13.05791 -38.63423 1316 ft 175 kts 244°
2026-05-04 23:03 -13.06315 -38.64537 1559 ft 169 kts 244°
2026-05-04 23:03 -13.06826 -38.65624 1726 ft 169 kts 244°
2026-05-04 23:03 -13.07336 -38.66710 1876 ft 170 kts 244°
2026-05-04 23:04 -13.07850 -38.67804 2026 ft 170 kts 244°
2026-05-04 23:04 -13.08370 -38.68911 2178 ft 171 kts 244°
2026-05-04 23:04 -13.08882 -38.70003 2326 ft 171 kts 244°
2026-05-04 23:04 -13.09397 -38.71100 2476 ft 171 kts 244°
2026-05-04 23:05 -13.09913 -38.72199 2625 ft 171 kts 244°
2026-05-04 23:05 -13.10433 -38.73306 2776 ft 171 kts 244°
2026-05-04 23:05 -13.10943 -38.74394 2924 ft 171 kts 244°
2026-05-04 23:05 -13.11463 -38.75503 3075 ft 171 kts 244°
2026-05-04 23:06 -13.11978 -38.76601 3224 ft 171 kts 244°
2026-05-04 23:06 -13.12486 -38.77685 3371 ft 170 kts 244°
2026-05-04 23:06 -13.13106 -38.78732 3507 ft 171 kts 222°
2026-05-04 23:06 -13.14111 -38.79353 3661 ft 170 kts 207°
2026-05-04 23:07 -13.15192 -38.79881 3812 ft 170 kts 205°
2026-05-04 23:07 -13.16265 -38.80391 3961 ft 170 kts 205°
2026-05-04 23:07 -13.17348 -38.80902 4111 ft 170 kts 205°
2026-05-04 23:07 -13.18418 -38.81406 4259 ft 170 kts 205°
2026-05-04 23:08 -13.19501 -38.81914 4409 ft 169 kts 205°
2026-05-04 23:08 -13.20576 -38.82419 4558 ft 169 kts 205°
2026-05-04 23:08 -13.21643 -38.82919 4706 ft 169 kts 205°
2026-05-04 23:08 -13.22722 -38.83425 4856 ft 169 kts 205°
2026-05-04 23:09 -13.23788 -38.83925 5004 ft 169 kts 205°
2026-05-04 23:09 -13.24867 -38.84432 5155 ft 169 kts 205°
2026-05-04 23:09 -13.25928 -38.84929 5302 ft 168 kts 205°
2026-05-04 23:09 -13.26999 -38.85431 5450 ft 168 kts 205°
2026-05-04 23:10 -13.28081 -38.85938 5501 ft 173 kts 205°
2026-05-04 23:10 -13.29199 -38.86463 5504 ft 179 kts 205°
2026-05-04 23:10 -13.30349 -38.87004 5503 ft 183 kts 205°
2026-05-04 23:10 -13.31531 -38.87559 5502 ft 185 kts 205°
2026-05-04 23:11 -13.32716 -38.88116 5501 ft 187 kts 205°
2026-05-04 23:11 -13.33903 -38.88673 5501 ft 188 kts 205°
2026-05-04 23:11 -13.35099 -38.89235 5501 ft 189 kts 205°
2026-05-04 23:11 -13.36299 -38.89798 5500 ft 189 kts 205°
2026-05-04 23:12 -13.37505 -38.90364 5500 ft 189 kts 205°
2026-05-04 23:12 -13.38702 -38.90916 5497 ft 189 kts 201°
2026-05-04 23:12 -13.40013 -38.91123 5501 ft 189 kts 184°
2026-05-04 23:12 -13.41331 -38.91196 5500 ft 189 kts 183°
2026-05-04 23:13 -13.42657 -38.91261 5500 ft 190 kts 183°
2026-05-04 23:13 -13.43978 -38.91325 5500 ft 190 kts 183°
2026-05-04 23:13 -13.45300 -38.91391 5500 ft 190 kts 183°
2026-05-04 23:13 -13.46627 -38.91457 5500 ft 190 kts 183°
2026-05-04 23:14 -13.47946 -38.91523 5500 ft 190 kts 183°
2026-05-04 23:14 -13.49283 -38.91590 5500 ft 190 kts 183°
2026-05-04 23:14 -13.50597 -38.91656 5500 ft 190 kts 183°
2026-05-04 23:14 -13.51919 -38.91723 5500 ft 190 kts 183°
2026-05-04 23:15 -13.53257 -38.91790 5500 ft 190 kts 183°
2026-05-04 23:15 -13.54569 -38.91856 5500 ft 190 kts 183°
2026-05-04 23:15 -13.55906 -38.91923 5500 ft 190 kts 183°
2026-05-04 23:15 -13.57216 -38.91989 5500 ft 190 kts 183°
2026-05-04 23:16 -13.58548 -38.92057 5500 ft 190 kts 183°
2026-05-04 23:16 -13.59881 -38.92124 5500 ft 190 kts 183°
2026-05-04 23:16 -13.61201 -38.92190 5500 ft 190 kts 183°
2026-05-04 23:16 -13.62523 -38.92257 5500 ft 190 kts 183°
2026-05-04 23:17 -13.63845 -38.92324 5500 ft 190 kts 183°
2026-05-04 23:17 -13.65179 -38.92391 5500 ft 190 kts 183°
2026-05-04 23:17 -13.66501 -38.92458 5500 ft 190 kts 183°
2026-05-04 23:17 -13.67828 -38.92525 5500 ft 190 kts 183°
2026-05-04 23:18 -13.69143 -38.92591 5500 ft 190 kts 183°
2026-05-04 23:18 -13.70475 -38.92658 5500 ft 190 kts 183°
2026-05-04 23:18 -13.71799 -38.92725 5500 ft 190 kts 183°
2026-05-04 23:18 -13.73119 -38.92792 5500 ft 190 kts 183°
2026-05-04 23:19 -13.74446 -38.92859 5500 ft 190 kts 183°
2026-05-04 23:19 -13.75760 -38.92925 5500 ft 190 kts 183°
2026-05-04 23:19 -13.77099 -38.92993 5500 ft 190 kts 183°
2026-05-04 23:19 -13.78416 -38.93059 5500 ft 190 kts 183°
2026-05-04 23:20 -13.79731 -38.93126 5500 ft 190 kts 183°
2026-05-04 23:20 -13.81071 -38.93193 5500 ft 190 kts 183°
2026-05-04 23:20 -13.82393 -38.93260 5500 ft 190 kts 183°
2026-05-04 23:20 -13.83707 -38.93327 5500 ft 190 kts 183°
2026-05-04 23:21 -13.85034 -38.93394 5500 ft 190 kts 183°
2026-05-04 23:21 -13.86368 -38.93461 5500 ft 190 kts 183°
2026-05-04 23:21 -13.87686 -38.93528 5500 ft 190 kts 183°
2026-05-04 23:21 -13.89019 -38.93595 5500 ft 190 kts 183°
2026-05-04 23:22 -13.90329 -38.93662 5500 ft 190 kts 183°
2026-05-04 23:22 -13.91660 -38.93729 5500 ft 190 kts 183°
2026-05-04 23:22 -13.92983 -38.93796 5500 ft 190 kts 183°
2026-05-04 23:22 -13.94313 -38.93863 5500 ft 190 kts 183°
2026-05-04 23:23 -13.95647 -38.93930 5500 ft 190 kts 183°
2026-05-04 23:23 -13.96959 -38.93997 5500 ft 190 kts 183°
2026-05-04 23:23 -13.98283 -38.94064 5500 ft 190 kts 183°
2026-05-04 23:23 -13.99608 -38.94131 5500 ft 190 kts 183°
2026-05-04 23:24 -14.00942 -38.94198 5500 ft 190 kts 183°
2026-05-04 23:24 -14.02254 -38.94265 5500 ft 190 kts 183°
2026-05-04 23:24 -14.03584 -38.94332 5500 ft 190 kts 183°
2026-05-04 23:24 -14.04916 -38.94400 5500 ft 190 kts 183°
2026-05-04 23:25 -14.06230 -38.94466 5500 ft 190 kts 183°
2026-05-04 23:25 -14.07567 -38.94534 5500 ft 190 kts 183°
2026-05-04 23:25 -14.08877 -38.94600 5500 ft 190 kts 183°
2026-05-04 23:25 -14.10206 -38.94667 5500 ft 190 kts 183°
2026-05-04 23:26 -14.11531 -38.94735 5500 ft 190 kts 183°
2026-05-04 23:26 -14.12850 -38.94801 5500 ft 190 kts 183°
2026-05-04 23:26 -14.14177 -38.94869 5500 ft 190 kts 183°
2026-05-04 23:26 -14.15507 -38.94936 5500 ft 190 kts 183°
2026-05-04 23:27 -14.16836 -38.95003 5500 ft 190 kts 183°
2026-05-04 23:27 -14.18160 -38.95071 5500 ft 190 kts 183°
2026-05-04 23:27 -14.19481 -38.95137 5500 ft 190 kts 183°
2026-05-04 23:27 -14.20795 -38.95204 5500 ft 190 kts 183°
2026-05-04 23:28 -14.22114 -38.95271 5500 ft 190 kts 183°
2026-05-04 23:28 -14.23438 -38.95338 5500 ft 190 kts 183°
2026-05-04 23:28 -14.24779 -38.95406 5500 ft 190 kts 183°
2026-05-04 23:28 -14.26085 -38.95472 5500 ft 190 kts 183°
2026-05-04 23:29 -14.27417 -38.95540 5500 ft 190 kts 183°
2026-05-04 23:29 -14.28746 -38.95607 5500 ft 190 kts 183°
2026-05-04 23:29 -14.30059 -38.95674 5500 ft 190 kts 183°
2026-05-04 23:29 -14.31396 -38.95742 5500 ft 190 kts 183°
2026-05-04 23:30 -14.32717 -38.95809 5500 ft 190 kts 183°
2026-05-04 23:30 -14.34028 -38.95875 5500 ft 190 kts 183°
2026-05-04 23:30 -14.35358 -38.95943 5500 ft 190 kts 183°
2026-05-04 23:30 -14.36692 -38.96011 5500 ft 190 kts 183°
2026-05-04 23:31 -14.38005 -38.96077 5500 ft 190 kts 183°
2026-05-04 23:31 -14.39342 -38.96145 5500 ft 190 kts 183°
2026-05-04 23:31 -14.40650 -38.96212 5500 ft 190 kts 183°
2026-05-04 23:31 -14.41977 -38.96279 5500 ft 190 kts 183°
2026-05-04 23:32 -14.43309 -38.96347 5500 ft 190 kts 183°
2026-05-04 23:32 -14.44632 -38.96414 5500 ft 190 kts 183°
2026-05-04 23:32 -14.45949 -38.96481 5500 ft 190 kts 183°
2026-05-04 23:32 -14.47279 -38.96549 5500 ft 190 kts 183°
2026-05-04 23:33 -14.48615 -38.96616 5500 ft 190 kts 183°
2026-05-04 23:33 -14.49922 -38.96683 5500 ft 190 kts 183°
2026-05-04 23:33 -14.51261 -38.96751 5500 ft 190 kts 183°
2026-05-04 23:33 -14.52583 -38.96818 5500 ft 190 kts 183°
2026-05-04 23:34 -14.53912 -38.96886 5500 ft 190 kts 183°
2026-05-04 23:34 -14.55233 -38.96953 5500 ft 190 kts 183°
2026-05-04 23:34 -14.56551 -38.97020 5500 ft 190 kts 183°
2026-05-04 23:34 -14.57872 -38.97087 5500 ft 190 kts 183°
2026-05-04 23:35 -14.59191 -38.97154 5500 ft 190 kts 183°
2026-05-04 23:35 -14.60525 -38.97222 5500 ft 190 kts 183°
2026-05-04 23:35 -14.61842 -38.97289 5500 ft 190 kts 183°
2026-05-04 23:35 -14.63181 -38.97357 5500 ft 190 kts 183°
2026-05-04 23:36 -14.64497 -38.97424 5500 ft 190 kts 183°
2026-05-04 23:36 -14.65828 -38.97492 5500 ft 190 kts 183°
2026-05-04 23:36 -14.67136 -38.97559 5500 ft 190 kts 183°
2026-05-04 23:36 -14.68463 -38.97626 5500 ft 190 kts 183°
2026-05-04 23:37 -14.69789 -38.97694 5500 ft 190 kts 183°
2026-05-04 23:37 -14.71105 -38.97761 5500 ft 190 kts 183°
2026-05-04 23:37 -14.72446 -38.97829 5500 ft 190 kts 183°
2026-05-04 23:37 -14.73759 -38.97896 5500 ft 190 kts 183°
2026-05-04 23:38 -14.75083 -38.97963 5500 ft 190 kts 183°
2026-05-04 23:38 -14.76411 -38.98031 5500 ft 190 kts 183°
2026-05-04 23:38 -14.77733 -38.98098 5500 ft 190 kts 183°
2026-05-04 23:38 -14.79057 -38.98166 5500 ft 190 kts 183°
2026-05-04 23:39 -14.80388 -38.98234 5500 ft 190 kts 183°
2026-05-04 23:39 -14.81701 -38.98301 5500 ft 190 kts 183°
2026-05-04 23:39 -14.83033 -38.98369 5500 ft 190 kts 183°
2026-05-04 23:39 -14.84352 -38.98436 5500 ft 190 kts 183°
2026-05-04 23:40 -14.85680 -38.98504 5500 ft 190 kts 183°
2026-05-04 23:40 -14.86999 -38.98571 5500 ft 190 kts 183°
2026-05-04 23:40 -14.88318 -38.98638 5500 ft 190 kts 183°
2026-05-04 23:40 -14.89651 -38.98706 5500 ft 190 kts 183°
2026-05-04 23:41 -14.90975 -38.98774 5500 ft 190 kts 183°
2026-05-04 23:41 -14.92291 -38.98841 5500 ft 190 kts 183°
2026-05-04 23:41 -14.93625 -38.98909 5500 ft 190 kts 183°
2026-05-04 23:41 -14.94936 -38.98976 5500 ft 190 kts 183°
2026-05-04 23:42 -14.96272 -38.99044 5500 ft 190 kts 183°
2026-05-04 23:42 -14.97584 -38.99111 5500 ft 189 kts 183°
2026-05-04 23:42 -14.98898 -38.99178 5500 ft 189 kts 183°
2026-05-04 23:42 -15.00225 -38.99246 5500 ft 189 kts 183°
2026-05-04 23:43 -15.01540 -38.99313 5500 ft 190 kts 183°
2026-05-04 23:43 -15.02867 -38.99381 5500 ft 190 kts 183°
2026-05-04 23:43 -15.04190 -38.99448 5500 ft 190 kts 183°
2026-05-04 23:43 -15.05526 -38.99517 5500 ft 190 kts 183°
2026-05-04 23:44 -15.06850 -38.99585 5500 ft 190 kts 183°
2026-05-04 23:44 -15.08175 -38.99652 5500 ft 190 kts 183°
2026-05-04 23:44 -15.09512 -38.99721 5500 ft 190 kts 183°
2026-05-04 23:44 -15.10840 -38.99788 5500 ft 190 kts 183°
2026-05-04 23:45 -15.12171 -38.99857 5500 ft 190 kts 183°
2026-05-04 23:45 -15.13487 -38.99924 5500 ft 190 kts 183°
2026-05-04 23:45 -15.14816 -38.99992 5500 ft 190 kts 183°
2026-05-04 23:45 -15.16154 -39.00060 5500 ft 190 kts 183°
2026-05-04 23:46 -15.17477 -39.00128 5500 ft 190 kts 183°
2026-05-04 23:46 -15.18812 -39.00196 5500 ft 190 kts 183°
2026-05-04 23:46 -15.20122 -39.00263 5500 ft 190 kts 183°
2026-05-04 23:46 -15.21464 -39.00332 5500 ft 190 kts 183°
2026-05-04 23:47 -15.22783 -39.00399 5500 ft 190 kts 183°
2026-05-04 23:47 -15.24120 -39.00468 5500 ft 190 kts 183°
2026-05-04 23:47 -15.25440 -39.00535 5500 ft 190 kts 183°
2026-05-04 23:47 -15.26767 -39.00603 5500 ft 190 kts 183°
2026-05-04 23:48 -15.28096 -39.00671 5500 ft 190 kts 183°
2026-05-04 23:48 -15.29426 -39.00739 5500 ft 190 kts 183°
2026-05-04 23:48 -15.30745 -39.00807 5500 ft 190 kts 183°
2026-05-04 23:48 -15.32070 -39.00875 5500 ft 190 kts 183°
2026-05-04 23:49 -15.33392 -39.00943 5500 ft 190 kts 183°
2026-05-04 23:49 -15.34726 -39.01011 5500 ft 190 kts 183°
2026-05-04 23:49 -15.35621 -39.01057 5500 ft 190 kts 183°